Home   Weather   Ennepetal   Past weeks

Flag for Germany Past Weather in Ennepetal, North Rhine-Westphalia, Germany — Yesterday and Last 2 Weeks

Now
43 °F

Scattered clouds.


Feels Like: 37 °F
Forecast: 30 / 48 °F
Wind: 10 mph from Southwest

Location: Dortmund / Wickede

Current Time: Apr 26, 2017 at 2:13:02 pm

Latest Report: Apr 26, 2017 at 1:20 pm


Visibility: N/A

Pressure: 29.89 "Hg

Humidity: 61%

Dew Point: 30 °F

Location of EnnepetalLocation

Past Weather in Ennepetal — Graph

°F

Ennepetal Temperature Yesterday

Maximum temperature yesterday: 48 °F (at 4:20 pm)
Minimum temperature yesterday: 39 °F (at 5:20 am)
Average temperature yesterday: 43 °F

High & Low Weather Summary for the Past Weeks

 TemperatureHumidityPressure
High57 °F (Apr 24, 2:50 pm)93% (Apr 14, 6:50 am)30.60 "Hg (Apr 14, 6:50 am)
Low25 °F (Apr 20, 5:20 am)28% (Apr 20, 3:20 pm)29.68 "Hg (Apr 25, 5:20 am)
Average44 °F65%30.12 "Hg
* Reported Apr 11 12:20 pm — Apr 26 12:50 pm, Ennepetal, Weather by CustomWeather, © 2017

Note: Actual official high and low records may vary slightly from our data, if they occured in-between our weather recording intervals... More about our weather records

Advertising

Ennepetal Weather History for the Previous 24 Hours

Scroll right to see more
 ConditionsComfort  
Time TempWeatherWind HumidityBarometerVisibility
12:50 pm
Wed, Apr 26
43 °FPartly sunny.7 mph61%29.89 "HgN/A
12:20 pm43 °FPartly sunny.7 mph61%29.89 "HgN/A
11:50 am41 °FPartly sunny.10 mph70%29.86 "HgN/A
11:20 am43 °FPartly sunny.6 mph61%29.86 "HgN/A
10:50 am45 °FPartly sunny.6 mph61%29.86 "HgN/A
10:20 am41 °FPartly sunny.5 mph66%29.86 "HgN/A
9:50 am41 °FPartly sunny.3 mph66%29.86 "HgN/A
9:20 am39 °FPartly sunny.7 mph70%29.86 "HgN/A
8:50 am37 °FPartly sunny.7 mph75%29.86 "HgN/A
8:20 am37 °FPartly sunny.9 mph75%29.86 "HgN/A
7:50 am36 °FPartly sunny.8 mph81%29.86 "HgN/A
7:20 am34 °FScattered clouds.8 mph81%29.83 "HgN/A
6:50 am32 °FSunny.9 mph87%29.83 "Hg10 mi
6:20 am32 °FSunny.8 mph87%29.83 "Hg10 mi
5:50 am32 °FClear.8 mph87%29.83 "Hg10 mi
5:20 am32 °FClear.8 mph87%29.83 "Hg10 mi
9:50 pm
Tue, Apr 25
41 °FClear.12 mph57%29.83 "Hg10 mi
8:50 pm41 °FClear.3 mph61%29.80 "Hg10 mi
8:20 pm43 °FSunny.7 mph57%29.80 "Hg10 mi
7:50 pm43 °FSunny.9 mph53%29.80 "Hg10 mi
7:20 pm45 °FPassing clouds.10 mph53%29.80 "HgN/A
6:50 pm46 °FPassing clouds.12 mph46%29.80 "HgN/A
6:20 pm45 °FScattered clouds.12 mph53%29.77 "HgN/A
5:50 pm45 °FScattered clouds.9 mph53%29.77 "HgN/A
5:20 pm46 °FScattered clouds.13 mph50%29.77 "HgN/A
4:50 pm45 °FScattered clouds.15 mph53%29.77 "HgN/A
4:20 pm48 °FScattered clouds.9 mph54%29.77 "HgN/A
3:50 pm45 °FScattered clouds.8 mph66%29.77 "HgN/A
3:20 pm45 °FScattered clouds.10 mph66%29.77 "HgN/A
2:50 pm39 °FScattered clouds.14 mph81%29.77 "HgN/A
2:20 pm39 °FSprinkles. Broken clouds.24 mph75%29.77 "HgN/A
Weather by CustomWeather, © 2017

See weather overviewHow to use our weather pages